Total_Precipitation_Accumulation
1.65 1.82 1.94 2.04 2.01 1.83 1.85 1.92 1.80 1.53 1.36 1.19 1.08 0.99 0.98 1.03 1.33 1.28 1.12 1.08 0.98 0.92 0.87 0.84 0.83 0.84 0.96 1.15 1.34 1.50 1.62 1.64 1.67 1.74 1.81 1.76 1.76 1.79
1.63 1.77 1.79 1.83 1.88 1.77 1.74 1.86 1.84 1.63 1.39 1.19 1.05 1.02 1.10 1.07 1.24 1.14 1.22 1.29 1.02 0.90 0.84 0.83 0.77 0.70 0.65 0.70 0.83 0.96 1.06 1.11 1.21 1.29 1.37 1.37 1.36 1.38
1.15 1.29 1.49 1.67 1.75 1.75 1.78 1.83 1.87 1.74 1.47 1.32 1.09 1.09 1.25 1.22 1.20 1.14 1.22 1.27 1.06 0.95 0.81 0.76 0.75 0.70 0.67 0.63 0.63 0.69 0.78 0.84 0.91 0.98 1.06 1.12 1.13 1.14
0.94 0.96 1.07 1.30 1.47 1.60 1.66 1.68 1.75 1.73 1.58 1.55 1.45 1.24 1.21 1.21 1.32 1.39 1.31 1.28 1.24 1.22 1.09 0.88 0.79 0.74 0.71 0.66 0.60 0.57 0.59 0.64 0.70 0.75 0.78 0.89 1.00 1.04
0.86 0.88 0.96 1.07 1.24 1.32 1.40 1.50 1.58 1.69 1.68 1.51 1.56 1.49 1.29 1.25 1.29 1.37 1.42 1.51 1.40 1.34 1.40 1.23 1.01 0.89 0.82 0.75 0.67 0.63 0.61 0.63 0.65 0.70 0.74 0.77 0.80 0.85
0.83 0.90 0.93 0.96 1.12 1.32 1.41 1.47 1.50 1.60 1.72 1.66 1.60 1.57 1.41 1.34 1.34 1.37 1.49 1.59 1.59 1.39 1.30 1.26 1.19 1.07 0.94 0.86 0.78 0.73 0.72 0.70 0.70 0.71 0.73 0.81 0.83 0.82
0.72 0.73 0.81 0.89 0.96 1.12 1.26 1.48 1.50 1.61 1.68 1.75 1.69 1.54 1.40 1.33 1.30 1.30 1.39 1.59 1.63 1.60 1.51 1.33 1.21 1.04 0.92 0.90 0.89 0.87 0.83 0.78 0.79 0.84 0.87 0.88 0.89 0.91
0.70 0.73 0.73 0.75 0.79 0.84 0.87 1.12 1.31 1.43 1.54 1.57 1.63 1.52 1.39 1.33 1.41 1.42 1.38 1.43 1.53 1.55 1.42 1.47 1.43 1.24 1.08 0.95 1.02 1.08 1.06 1.00 0.91 0.88 0.91 0.96 0.99 1.01
0.64 0.73 0.78 0.77 0.83 0.92 0.88 0.92 1.02 1.09 1.22 1.34 1.39 1.36 1.35 1.31 1.39 1.43 1.41 1.35 1.28 1.37 1.35 1.41 1.46 1.35 1.20 1.09 1.10 1.07 1.05 1.03 0.97 0.89 0.85 0.87 0.92 0.99
0.66 0.66 0.77 0.84 0.91 1.08 1.05 1.10 1.03 0.94 0.95 1.00 1.14 1.21 1.18 1.27 1.36 1.52 1.59 1.47 1.35 1.38 1.36 1.29 1.26 1.22 1.14 1.13 1.15 1.01 0.95 0.95 0.93 0.89 0.82 0.78 0.79 0.84
0.63 0.66 0.78 0.88 1.05 1.16 1.18 1.19 1.08 0.99 1.03 1.12 1.20 1.27 1.29 1.35 1.41 1.48 1.54 1.53 1.44 1.40 1.32 1.20 1.11 1.12 1.12 1.09 1.07 1.07 1.01 0.96 0.92 0.90 0.87 0.85 0.87 0.96
0.69 0.69 0.91 0.92 1.01 1.06 1.11 1.23 1.25 1.11 1.04 1.07 1.11 1.14 1.13 1.23 1.43 1.44 1.55 1.63 1.50 1.42 1.31 1.19 1.15 1.24 1.29 1.15 1.02 0.99 0.96 1.01 1.01 0.98 0.96 0.96 1.00 0.97
0.66 0.69 0.67 0.81 0.82 0.92 1.03 1.10 1.32 1.21 1.13 1.14 1.12 1.02 0.99 1.05 1.18 1.35 1.49 1.57 1.52 1.31 1.19 1.18 1.18 1.21 1.19 1.11 1.04 1.01 0.98 0.95 0.96 0.95 0.97 1.03 1.07 1.01
0.52 0.61 0.61 0.70 0.73 0.80 0.82 0.99 1.17 1.14 1.07 1.15 1.16 1.09 1.00 0.99 1.02 1.09 1.25 1.33 1.29 1.26 1.20 1.15 1.12 1.10 1.08 0.99 0.97 1.01 1.03 0.99 0.96 0.95 0.95 1.09 1.12 1.18
0.36 0.51 0.58 0.66 0.63 0.62 0.75 0.94 1.00 1.03 1.17 1.14 1.15 1.09 1.00 0.97 0.92 0.97 1.08 1.15 1.12 1.09 1.10 1.10 1.15 1.14 1.11 1.01 0.90 0.86 0.96 1.03 1.00 0.99 1.00 1.02 0.98 1.02
0.36 0.50 0.62 0.68 0.66 0.63 0.70 0.83 0.88 1.02 1.17 1.10 1.06 1.00 0.93 0.95 0.94 0.93 0.96 1.02 1.08 1.05 1.02 1.02 1.15 1.33 1.33 1.21 1.15 1.06 0.99 1.01 1.00 1.06 1.09 1.09 1.09 1.08
0.47 0.62 0.75 0.76 0.77 0.73 0.76 0.86 0.83 0.81 0.91 0.91 0.93 0.94 0.94 0.93 0.88 0.83 0.86 0.90 0.95 0.91 0.90 0.90 0.91 1.00 1.15 1.23 1.26 1.18 1.18 1.21 1.19 1.21 1.24 1.15 1.05 1.05
0.66 0.82 0.92 1.00 1.00 0.94 0.89 0.88 0.81 0.79 0.79 0.82 0.91 0.92 0.89 0.91 0.91 0.85 0.86 0.89 0.90 0.86 0.82 0.78 0.80 0.88 0.97 1.01 0.96 0.94 0.99 1.03 1.06 1.14 1.23 1.19 1.06 0.96
0.91 0.95 0.99 1.04 1.07 1.00 0.89 0.80 0.70 0.65 0.68 0.75 0.77 0.79 0.82 0.85 0.90 0.89 0.88 0.86 0.82 0.79 0.76 0.73 0.77 0.84 0.94 0.90 0.78 0.72 0.82 0.90 0.96 1.01 1.06 1.03 0.92 0.87
0.95 0.98 1.05 1.04 1.00 0.88 0.74 0.65 0.56 0.54 0.58 0.61 0.61 0.59 0.66 0.72 0.77 0.81 0.83 0.82 0.78 0.75 0.75 0.74 0.78 0.86 0.94 0.92 0.81 0.70 0.72 0.81 0.87 0.92 0.93 0.96 0.93 0.96
0.64 0.68 0.72 0.74 0.69 0.61 0.55 0.52 0.48 0.46 0.48 0.50 0.53 0.54 0.60 0.62 0.63 0.68 0.76 0.84 0.84 0.81 0.79 0.73 0.73 0.81 0.85 0.91 0.87 0.71 0.64 0.74 0.84 0.85 0.87 0.95 0.98 0.95
0.44 0.46 0.46 0.44 0.44 0.44 0.45 0.45 0.46 0.46 0.47 0.50 0.53 0.56 0.60 0.65 0.62 0.63 0.68 0.74 0.78 0.79 0.78 0.77 0.79 0.85 0.87 0.91 0.84 0.71 0.62 0.62 0.74 0.91 0.93 0.91 0.88 0.83
0.40 0.41 0.40 0.39 0.39 0.42 0.45 0.48 0.51 0.51 0.50 0.53 0.56 0.57 0.58 0.63 0.65 0.67 0.69 0.73 0.76 0.77 0.78 0.78 0.81 0.86 0.86 0.84 0.79 0.72 0.66 0.63 0.64 0.73 0.83 0.95 0.87 0.71